Temperature
-2 -2 -2 -2 -2 -3 -2 -2 -2 -2 -1 -0 0 1 2 2 3 4 5 6 7 8 9 10 11 12 12 13 14 14 15 15 15 16 16 16 16 16 16 16 16 16 16
-3 -4 -4 -4 -4 -4 -4 -4 -4 -3 -3 -2 -1 -0 1 1 2 3 3 5 6 7 8 9 10 11 12 12 13 14 14 15 15 15 16 16 16 16 16 16 16 16 16
-5 -5 -5 -6 -6 -6 -6 -5 -5 -5 -4 -4 -3 -1 -1 0 1 2 2 3 5 6 7 8 9 10 11 12 12 13 14 14 15 15 15 16 16 16 16 16 16 16 16
-6 -6 -7 -7 -7 -7 -7 -7 -6 -6 -5 -5 -4 -3 -2 -1 0 1 1 2 3 4 5 7 8 9 10 11 12 13 13 14 14 15 15 15 15 16 16 16 16 16 16
-7 -7 -8 -8 -8 -8 -8 -8 -8 -8 -7 -7 -6 -5 -3 -2 -1 -1 -0 1 1 2 3 5 7 8 9 10 11 12 13 14 14 14 15 15 15 15 15 15 16 16 16
-8 -9 -9 -9 -10 -10 -10 -9 -9 -9 -9 -8 -8 -7 -5 -3 -2 -2 -2 -1 -1 0 1 3 5 7 9 10 10 11 12 13 14 14 14 15 15 15 15 15 15 16 16
-9 -10 -10 -10 -11 -11 -11 -11 -11 -10 -10 -10 -10 -9 -5 -4 -4 -4 -4 -3 -2 -2 -0 1 4 6 8 9 10 11 12 13 13 14 14 14 14 15 15 15 15 15 15
-10 -10 -11 -11 -12 -12 -12 -12 -12 -12 -12 -12 -12 -11 -9 -7 -5 -4 -4 -4 -3 -3 -1 0 2 4 6 8 9 10 11 12 13 13 14 14 14 14 15 15 15 15 15
-11 -11 -12 -12 -13 -13 -13 -13 -13 -13 -13 -12 -12 -12 -10 -8 -9 -7 -6 -5 -5 -4 -2 -1 1 2 4 7 8 9 10 11 12 12 13 13 14 14 14 14 15 15 15
-11 -12 -12 -13 -13 -14 -14 -13 -14 -13 -13 -13 -13 -12 -11 -10 -9 -8 -7 -6 -6 -5 -3 -2 -0 1 3 5 7 8 9 10 11 12 12 13 13 13 13 14 14 14 15
-12 -12 -13 -13 -13 -14 -14 -14 -14 -14 -14 -14 -13 -12 -11 -10 -10 -9 -8 -7 -6 -5 -4 -3 -1 1 2 3 5 7 9 10 11 11 12 12 13 13 13 13 14 14 14
-12 -13 -13 -13 -13 -14 -14 -14 -14 -14 -14 -13 -13 -12 -11 -11 -10 -9 -9 -8 -8 -6 -5 -3 -2 -0 1 2 4 5 7 9 10 11 11 12 12 13 13 13 13 14 14
-13 -13 -13 -13 -13 -13 -14 -14 -14 -14 -13 -13 -12 -12 -11 -10 -10 -9 -9 -9 -8 -7 -6 -4 -3 -1 -0 1 3 4 6 8 9 10 11 11 12 12 13 13 13 13 14
-13 -13 -13 -13 -13 -13 -13 -13 -13 -13 -13 -12 -12 -11 -10 -10 -9 -9 -9 -9 -8 -8 -7 -6 -3 -2 -1 -0 1 3 5 7 8 9 10 10 11 12 12 13 13 13 13
-13 -12 -13 -13 -13 -13 -13 -13 -13 -13 -12 -12 -11 -10 -10 -9 -9 -9 -8 -8 -8 -8 -7 -6 -5 -3 -2 -1 1 2 4 6 7 8 9 10 10 11 12 12 13 13 13
-12 -12 -12 -12 -13 -13 -12 -12 -12 -12 -11 -11 -10 -10 -9 -9 -8 -8 -8 -8 -8 -8 -7 -6 -5 -4 -3 -1 0 2 3 5 6 8 8 9 10 11 11 12 12 12 12
-12 -12 -12 -12 -12 -11 -11 -11 -11 -11 -11 -10 -10 -9 -9 -9 -9 -8 -8 -8 -8 -7 -7 -6 -5 -4 -3 -2 -0 1 3 4 6 7 8 8 9 10 11 11 12 12 12
-12 -11 -11 -11 -10 -10 -10 -10 -10 -10 -10 -10 -10 -9 -9 -9 -9 -9 -8 -8 -8 -7 -7 -6 -5 -4 -3 -2 -1 1 2 4 5 7 8 8 9 10 10 11 11 12 12
-12 -11 -11 -10 -10 -10 -10 -10 -10 -10 -10 -10 -10 -10 -10 -9 -9 -9 -9 -9 -8 -8 -7 -6 -5 -4 -3 -2 -1 0 2 3 5 6 7 8 8 9 10 10 11 11 12
-12 -11 -11 -10 -10 -10 -10 -10 -10 -10 -10 -10 -10 -10 -10 -10 -10 -10 -9 -9 -9 -9 -8 -7 -6 -5 -4 -3 -2 -0 2 3 4 6 7 8 8 9 9 10 11 11 12
-12 -12 -11 -11 -10 -10 -10 -11 -10 -10 -10 -10 -10 -10 -10 -10 -10 -10 -10 -10 -10 -9 -9 -8 -7 -5 -4 -3 -2 -1 0 2 4 5 6 7 8 9 9 10 10 11 11
-12 -12 -12 -11 -11 -10 -10 -11 -11 -11 -11 -11 -11 -11 -11 -11 -11 -11 -11 -10 -10 -10 -10 -9 -8 -7 -6 -4 -3 -2 -1 1 3 4 6 7 8 8 9 9 10 11 11
-12 -13 -12 -12 -11 -11 -11 -11 -12 -12 -12 -12 -12 -12 -12 -11 -11 -11 -10 -10 -10 -10 -10 -10 -9 -8 -7 -6 -4 -3 -2 -1 2 3 5 6 7 8 8 9 10 10 11
-13 -13 -13 -12 -12 -11 -11 -11 -12 -12 -12 -12 -13 -13 -13 -12 -11 -11 -11 -11 -11 -10 -10 -10 -10 -9 -8 -6 -5 -4 -2 -1 1 2 3 5 6 7 8 8 9 10 10
-13 -13 -13 -13 -12 -12 -12 -11 -12 -12 -12 -13 -13 -13 -13 -13 -12 -12 -12 -11 -11 -10 -10 -9 -9 -9 -8 -6 -5 -4 -3 -2 -0 1 3 4 5 6 7 8 8 9 10
-12 -13 -13 -13 -13 -12 -12 -12 -12 -12 -13 -13 -14 -14 -13 -13 -13 -13 -13 -13 -12 -11 -10 -9 -8 -8 -7 -6 -5 -4 -3 -2 -1 1 2 3 4 5 6 7 8 8 9
Wind_Speed
17 18 17 17 18 20 19 19 19 20 20 20 19 19 19 20 21 20 19 26 29 28 28 27 25 24 24 24 24 28 32 33 33 32 31 32 32 31 31 31 31 31 30
18 17 16 16 17 19 20 19 19 18 16 17 17 19 20 21 19 20 21 24 26 27 26 26 25 24 24 24 24 26 31 34 34 34 32 32 33 32 32 31 31 31 31
19 18 15 14 17 20 20 19 18 15 14 14 14 16 17 17 19 20 21 20 20 22 24 24 24 24 24 24 24 25 29 34 36 36 35 33 33 33 33 32 32 31 32
20 18 15 14 19 19 17 15 10 12 12 13 14 14 13 14 17 19 19 18 17 17 19 22 22 22 22 22 23 24 26 32 36 37 37 35 34 34 34 33 32 32 32
20 19 16 15 19 16 14 13 10 11 13 14 14 14 13 14 15 16 14 15 15 15 14 17 21 21 20 20 21 23 23 28 34 37 38 37 36 35 35 34 33 33 32
21 20 17 16 18 12 8 9 12 11 11 13 15 15 14 16 14 11 11 10 11 12 13 16 15 16 18 18 18 19 22 24 30 35 37 39 39 37 36 35 34 34 33
21 20 16 16 16 9 10 11 11 13 11 11 12 14 13 13 11 6 7 7 7 9 14 15 14 14 13 17 17 16 17 20 25 31 35 37 38 38 37 36 35 34 34
22 20 18 16 15 10 10 10 12 10 11 9 10 12 7 6 4 10 7 7 7 9 12 15 15 14 14 12 14 17 15 16 19 26 32 35 37 37 37 36 35 35 34
22 21 20 18 16 10 10 11 11 11 12 11 7 7 6 6 12 6 6 6 8 10 11 11 13 15 16 13 13 13 14 13 15 19 26 33 35 36 35 35 35 35 35
21 21 20 19 17 13 11 11 10 10 11 11 10 8 10 11 8 7 5 5 8 10 11 13 14 13 14 12 13 16 15 12 11 14 18 26 32 35 36 34 32 32 32
19 20 21 19 17 14 11 11 12 10 9 10 10 10 11 11 11 9 12 10 9 7 9 12 12 11 11 12 11 13 16 13 9 9 11 15 25 32 34 35 32 30 30
13 17 21 19 18 15 13 13 11 11 10 11 10 10 10 9 9 9 11 14 13 10 11 10 10 9 9 10 12 17 16 12 9 7 8 9 14 25 32 35 35 33 30
12 12 19 17 17 17 18 16 12 12 11 11 10 10 10 11 11 11 12 13 14 11 8 8 8 10 8 8 10 18 15 13 11 8 7 7 9 14 24 31 35 35 33
12 19 20 21 21 21 19 15 12 12 10 10 12 11 10 10 10 10 10 12 13 10 7 8 10 8 6 9 13 17 12 14 12 10 7 7 8 10 16 24 30 34 34
17 21 22 20 21 20 17 13 11 12 11 11 11 12 10 10 10 10 10 10 10 12 11 7 5 8 10 9 14 11 10 14 13 10 8 7 7 10 14 18 25 29 30
19 19 18 19 18 18 16 13 11 11 11 11 10 11 10 9 8 9 9 9 9 10 11 6 8 11 13 12 15 11 11 16 12 9 8 7 7 9 13 16 21 28 30
18 17 17 18 19 18 15 12 11 12 11 10 9 8 9 9 8 7 7 7 8 8 11 10 9 10 11 11 11 9 9 7 7 9 9 7 6 8 12 15 20 26 31
17 18 18 18 19 17 14 12 11 11 11 11 11 10 9 9 10 8 7 7 7 7 8 11 10 9 9 9 9 9 7 6 5 8 9 7 5 6 11 14 18 22 27
15 17 17 18 19 16 13 11 11 11 11 12 12 12 12 11 11 10 9 8 7 8 7 8 8 7 6 7 7 7 6 5 5 5 7 6 5 6 9 13 16 20 24
13 15 16 16 17 15 10 10 11 12 12 13 13 13 13 13 12 12 11 10 9 8 8 7 7 7 6 6 5 4 4 3 3 3 4 5 5 7 10 12 15 18 22
13 14 15 17 17 14 9 9 10 13 12 13 13 14 14 19 22 17 14 12 12 9 8 8 8 7 7 7 5 5 5 4 3 1 2 2 2 4 6 8 11 15 19
12 13 14 15 17 15 21 22 15 10 11 12 13 14 14 16 21 22 23 21 19 13 10 8 7 9 9 9 8 7 5 3 2 2 3 2 2 4 5 5 9 14 16
11 12 13 14 15 18 25 22 23 11 10 10 11 13 14 17 19 8 17 21 18 21 18 10 8 8 9 10 10 9 7 4 3 4 4 2 1 4 4 5 13 14 15
10 9 10 12 13 18 26 21 21 11 8 10 10 12 13 14 17 15 13 13 10 11 14 10 8 8 9 10 9 8 8 8 6 4 2 1 1 2 4 5 11 14 15
8 8 10 11 12 16 24 21 17 7 8 10 10 13 15 11 24 25 16 14 13 11 16 19 17 15 16 15 12 6 6 4 3 2 1 0 1 0 2 3 6 13 15
8 10 11 10 11 12 21 23 15 6 8 9 9 12 20 22 25 25 15 14 15 13 14 14 14 14 11 11 14 7 5 4 3 2 1 1 1 0 2 2 2 6 9
Wind_Direction
341 339 334 333 334 336 333 329 327 324 323 321 317 315 313 309 305 303 303 303 304 304 302 299 295 290 282 274 259 242 232 222 213 210 207 205 201 198 197 196 194 193 192
337 336 331 328 332 334 330 326 321 319 320 317 314 313 308 304 300 300 300 300 301 300 300 298 294 288 283 275 266 251 237 227 218 212 209 207 203 199 198 198 197 196 194
335 333 327 325 330 330 328 326 319 322 319 316 312 309 306 302 300 299 298 296 295 298 299 299 297 291 283 276 269 258 242 231 222 214 209 207 205 202 200 199 198 197 196
332 331 325 321 327 327 327 325 324 326 320 316 313 309 304 301 298 295 294 291 291 293 298 303 303 297 288 279 271 263 250 235 225 217 211 207 205 203 201 200 199 198 198
330 328 319 318 326 323 323 324 328 322 319 317 313 307 304 300 293 291 291 290 289 294 303 313 314 310 298 285 276 265 255 240 229 221 214 208 205 204 202 201 199 199 198
328 325 318 321 323 319 318 319 319 319 315 315 313 308 301 291 284 282 285 292 298 308 325 325 322 319 313 302 288 274 259 247 233 225 219 211 206 204 203 201 200 199 199
325 322 320 321 319 316 316 316 319 318 318 319 317 316 299 281 274 287 294 298 306 329 332 329 327 325 319 314 306 294 273 255 240 229 222 215 208 205 203 202 200 199 199
325 325 322 319 316 313 313 314 317 314 319 326 318 318 312 306 341 324 302 309 330 339 333 328 322 323 320 314 308 307 299 271 250 235 224 218 212 206 204 203 201 200 200
323 321 318 317 314 310 310 309 306 313 315 313 306 304 306 314 324 283 289 317 337 328 323 319 318 318 313 313 311 311 310 295 261 245 231 218 213 209 206 205 204 202 201
323 323 321 317 312 310 305 304 314 305 303 307 306 285 288 295 296 305 304 317 318 319 316 318 313 308 308 308 309 314 317 307 278 251 244 225 213 210 208 205 204 203 202
323 322 321 316 312 310 302 298 300 295 295 292 295 294 293 290 278 286 302 313 315 305 307 308 301 302 306 307 307 318 327 319 297 267 254 242 222 212 208 205 203 203 203
321 318 319 314 309 307 301 299 294 291 290 286 285 284 286 289 294 295 298 307 310 311 307 300 297 300 306 310 319 332 333 332 322 298 278 262 241 221 210 205 201 201 204
325 318 317 313 310 305 303 299 296 293 287 283 281 282 281 280 284 287 290 298 302 306 299 296 298 300 307 329 328 335 334 339 340 326 308 287 257 233 216 206 198 198 201
317 315 317 315 311 307 305 300 296 291 288 284 284 281 279 277 276 278 283 293 299 300 294 288 298 294 326 328 323 330 331 334 338 335 317 298 266 236 218 209 199 196 196
321 321 318 316 315 312 309 303 294 291 288 284 282 281 278 277 275 274 275 275 282 295 301 293 297 317 323 314 315 320 323 325 331 333 319 300 272 234 214 202 195 191 190
323 322 324 324 323 320 317 310 302 297 296 292 288 286 288 287 286 284 280 278 271 275 282 284 289 296 302 305 308 312 312 320 323 328 328 299 280 238 210 194 186 187 189
326 328 329 330 329 326 324 320 317 314 314 313 313 312 322 320 316 306 300 295 289 280 279 286 285 291 292 295 300 299 299 302 304 325 327 301 282 244 210 192 184 185 186
331 333 334 336 338 339 340 339 339 342 342 343 344 343 340 341 335 324 321 313 307 302 294 293 295 294 291 292 292 292 298 299 295 314 325 301 271 240 211 193 184 181 182
333 338 340 343 344 348 356 4 6 7 6 4 359 355 350 350 352 346 343 340 328 323 314 304 301 298 294 299 300 294 292 285 294 309 323 296 252 227 208 193 184 180 179
337 340 341 342 344 345 357 16 16 15 12 9 4 359 353 356 358 352 354 355 343 336 332 325 317 313 312 313 311 312 310 297 298 315 319 290 235 210 203 190 184 181 180
342 339 341 343 345 344 357 40 28 18 11 6 2 358 352 359 2 4 1 2 355 349 348 345 339 337 339 340 342 332 313 304 289 298 309 281 202 185 188 185 181 179 179
338 339 342 342 346 346 1 27 32 17 8 4 359 353 350 351 358 7 3 5 4 358 359 358 348 343 338 337 334 331 322 317 318 353 352 310 201 183 173 168 174 175 178
334 337 337 341 342 341 359 23 25 19 3 357 353 351 353 351 354 4 0 1 360 1 0 357 340 337 330 331 329 327 326 322 309 337 349 323 226 191 166 168 171 175 177
329 329 329 335 338 340 353 18 25 15 359 351 346 346 345 343 347 13 1 352 351 354 353 351 343 335 334 328 323 314 306 303 288 269 259 309 296 183 146 158 171 174 174
321 324 327 331 335 336 345 7 28 5 5 349 349 354 351 349 356 10 7 354 353 354 355 355 357 356 356 350 351 342 324 305 286 253 176 213 318 22 112 134 161 169 168
322 328 327 327 326 325 338 353 19 19 9 358 351 352 354 6 5 9 10 358 357 356 348 345 347 350 347 348 1 358 330 310 301 289 51 85 296 107 112 83 122 151 154
Height
1527 1522 1517 1512 1508 1503 1498 1492 1488 1484 1480 1477 1474 1471 1467 1465 1463 1461 1459 1460 1460 1461 1463 1464 1467 1470 1474 1477 1480 1484 1488 1493 1498 1502 1507 1512 1516 1521 1526 1531 1537 1542 1546
1524 1518 1513 1508 1503 1498 1493 1488 1483 1478 1474 1470 1467 1464 1461 1458 1455 1454 1452 1452 1452 1453 1454 1456 1458 1461 1464 1468 1471 1475 1479 1484 1490 1495 1500 1505 1510 1515 1520 1525 1531 1536 1541
1520 1514 1509 1504 1499 1494 1489 1483 1478 1473 1468 1464 1460 1457 1454 1451 1448 1447 1445 1444 1444 1444 1445 1447 1449 1451 1454 1458 1462 1467 1471 1476 1481 1486 1492 1497 1503 1508 1514 1519 1525 1530 1536
1517 1511 1505 1500 1494 1489 1484 1479 1473 1467 1462 1457 1453 1449 1447 1444 1441 1440 1438 1437 1436 1436 1437 1438 1440 1442 1445 1448 1453 1458 1462 1467 1472 1478 1484 1489 1495 1501 1507 1512 1518 1524 1529
1513 1507 1501 1496 1490 1485 1480 1475 1469 1464 1457 1452 1447 1443 1439 1437 1434 1433 1431 1430 1430 1429 1429 1429 1430 1433 1436 1439 1443 1448 1453 1457 1463 1469 1475 1481 1487 1493 1499 1505 1511 1517 1523
1509 1503 1497 1491 1486 1480 1475 1470 1465 1460 1455 1449 1442 1437 1433 1431 1428 1426 1425 1425 1424 1423 1422 1421 1422 1424 1427 1430 1434 1439 1444 1449 1453 1459 1466 1473 1479 1485 1492 1498 1504 1510 1517
1505 1498 1492 1486 1481 1476 1471 1466 1461 1455 1451 1446 1439 1431 1426 1425 1422 1421 1421 1420 1419 1417 1415 1415 1415 1415 1418 1421 1425 1429 1435 1440 1444 1450 1456 1463 1470 1477 1484 1490 1497 1503 1510
1500 1494 1487 1482 1476 1471 1466 1462 1457 1452 1447 1445 1440 1433 1425 1420 1419 1417 1417 1416 1414 1412 1410 1409 1408 1408 1410 1412 1416 1421 1425 1431 1436 1440 1446 1453 1460 1468 1475 1482 1489 1496 1503
1496 1490 1483 1477 1472 1467 1462 1458 1453 1449 1443 1440 1440 1438 1432 1424 1417 1411 1412 1411 1409 1407 1405 1403 1403 1402 1403 1405 1408 1413 1417 1422 1427 1431 1436 1442 1450 1458 1466 1474 1481 1489 1496
1492 1486 1479 1473 1468 1463 1458 1453 1449 1445 1440 1436 1434 1433 1431 1427 1422 1411 1407 1407 1405 1403 1401 1399 1398 1397 1398 1399 1401 1405 1409 1414 1419 1424 1427 1431 1438 1448 1456 1465 1473 1481 1488
1488 1482 1476 1470 1464 1458 1453 1448 1444 1440 1436 1432 1429 1427 1425 1423 1420 1415 1406 1402 1400 1399 1397 1395 1393 1393 1393 1393 1395 1398 1402 1406 1412 1417 1422 1423 1429 1437 1446 1455 1463 1472 1481
1484 1479 1472 1466 1460 1453 1448 1442 1438 1434 1430 1427 1424 1422 1421 1419 1416 1413 1407 1401 1397 1394 1393 1391 1389 1388 1388 1388 1389 1391 1395 1399 1404 1410 1415 1420 1424 1430 1438 1447 1454 1464 1473
1481 1475 1468 1462 1455 1448 1442 1437 1432 1427 1424 1421 1419 1417 1415 1414 1412 1410 1406 1400 1396 1391 1389 1387 1386 1385 1384 1384 1385 1386 1389 1393 1397 1403 1409 1415 1421 1425 1432 1440 1447 1456 1466
1481 1473 1466 1458 1450 1443 1436 1431 1426 1422 1419 1416 1414 1413 1411 1409 1408 1406 1403 1399 1394 1389 1386 1384 1381 1381 1380 1380 1381 1382 1384 1388 1392 1397 1403 1410 1417 1422 1428 1435 1441 1449 1459
1480 1472 1463 1454 1446 1438 1432 1426 1422 1418 1415 1412 1410 1409 1407 1405 1403 1401 1399 1397 1394 1388 1383 1380 1379 1377 1376 1376 1377 1378 1379 1383 1387 1393 1398 1404 1412 1418 1424 1430 1436 1443 1451
1479 1470 1461 1452 1443 1436 1429 1424 1419 1415 1412 1410 1408 1406 1404 1402 1400 1397 1394 1392 1389 1387 1381 1377 1376 1374 1373 1372 1373 1374 1376 1378 1383 1389 1393 1400 1406 1413 1419 1426 1432 1439 1446
1478 1469 1461 1452 1443 1435 1429 1424 1419 1415 1412 1410 1408 1406 1403 1401 1397 1394 1391 1387 1385 1382 1379 1374 1372 1370 1369 1368 1369 1370 1372 1375 1379 1384 1389 1395 1402 1408 1415 1421 1428 1435 1442
1478 1470 1463 1454 1446 1439 1432 1427 1422 1418 1415 1412 1409 1406 1404 1400 1396 1392 1388 1384 1381 1378 1376 1371 1368 1367 1365 1365 1365 1366 1368 1372 1375 1380 1385 1391 1397 1404 1410 1417 1424 1431 1438
1478 1471 1464 1457 1450 1443 1437 1432 1427 1423 1419 1415 1412 1408 1405 1400 1396 1391 1387 1382 1378 1375 1372 1369 1365 1364 1362 1362 1362 1363 1365 1368 1371 1376 1382 1388 1394 1400 1406 1413 1419 1427 1434
1479 1472 1466 1460 1453 1447 1442 1436 1431 1427 1423 1418 1414 1410 1406 1402 1397 1391 1386 1381 1377 1373 1369 1366 1363 1361 1360 1359 1359 1360 1363 1365 1369 1373 1378 1384 1390 1396 1402 1408 1415 1422 1429
1480 1474 1468 1461 1455 1449 1445 1439 1434 1430 1425 1420 1416 1411 1407 1403 1398 1393 1387 1381 1376 1372 1368 1364 1361 1359 1358 1357 1357 1358 1360 1362 1366 1370 1375 1380 1385 1391 1397 1403 1410 1417 1424
1480 1474 1469 1463 1457 1451 1448 1442 1436 1431 1426 1421 1416 1411 1407 1402 1398 1392 1386 1381 1376 1372 1368 1364 1361 1358 1357 1356 1356 1357 1358 1360 1364 1368 1371 1376 1381 1387 1392 1400 1406 1413 1420
1481 1475 1469 1464 1458 1453 1449 1443 1438 1433 1427 1422 1417 1412 1407 1402 1397 1391 1385 1380 1375 1370 1368 1365 1361 1358 1356 1355 1354 1355 1356 1358 1361 1365 1369 1372 1377 1383 1389 1396 1403 1409 1416
1481 1475 1470 1465 1460 1454 1450 1445 1439 1434 1429 1423 1418 1413 1409 1403 1398 1392 1385 1379 1375 1370 1366 1362 1360 1357 1355 1353 1353 1353 1354 1356 1358 1363 1367 1370 1374 1379 1385 1392 1399 1406 1412
1481 1476 1471 1466 1461 1455 1450 1446 1440 1435 1430 1425 1420 1415 1410 1405 1400 1393 1385 1380 1375 1370 1366 1362 1358 1355 1353 1352 1351 1351 1353 1355 1357 1361 1364 1368 1372 1376 1382 1388 1395 1402 1409
1481 1476 1471 1466 1461 1456 1451 1447 1442 1436 1431 1426 1421 1416 1411 1407 1401 1394 1387 1381 1376 1370 1365 1361 1357 1354 1351 1349 1349 1349 1351 1353 1355 1359 1362 1367 1370 1374 1379 1385 1391 1398 1405